Погода в Афипсипе

Россия / Республика Адыгея     44°59′44″N   38°46′41″E
темп.,
°C
ветер,
м/с
пор.,
м/с
влажн.,
%
обл.,
%
осадки,
мм/ч
давл.,
гПа
погр.,
м
8 декабря, ср
ср800:00+8в34745 0.0 100966
03:00+8в45750 0.0 100870
06:00+7вюв47770 0.0 100796
09:00+8в487436 0.0 1008139
12:00+13в4653100 0.0 1007208
15:00+13в2454100 0.0 100793
18:00+11юв4662100 0.0 100981
21:00+12ююв3369100 0.0 100946
9 декабря, чт
чт900:00+12ююз497495 0.0 1011173
03:00+10зюз228254 0.0 101215
06:00+9зюз228592 0.0 101325
09:00+9з2690100 0.0 1015139
12:00+12з347291 0.0 1016544
15:00+12з5666100 0.0 1017744
18:00+10юз477298 0.0 1019282
21:00+10ююз3671100 0.0 1020241
10 декабря, пт
пт1000:00+9юз3678100 0.0 1021139
03:00+8юз228549 0.0 102233
06:00+7юз128610 0.0 102312
09:00+8ююв11825 0.0 102313
12:00+12ююв247017 0.0 1023520
15:00+14ююз25656 0.0 1022894
18:00+10вюв46830 0.0 1023137
21:00+9вюв49830 0.0 1022215
11 декабря, сб
сб1100:00+8в48845 0.0 1022169
03:00+7в488561 0.0 1022152
06:00+7в41083100 0.0 1022193
09:00+8в4979100 0.0 1023244
12:00+11в5865100 0.0 1023310
15:00+11в4865100 0.0 1023368
18:00+9в41077100 0.0 1024251
21:00+8всв488514 0.0 1025190
12 декабря, вс
вс1200:00+7в49875 0.0 1025216
03:00+6в410875 0.0 1025281
06:00+5в498917 0.0 1025240
09:00+5всв51185100 0.0 1025339
12:00+9в696847 0.0 1023453
15:00+11в6106092 0.0 1022525
18:00+9в61265100 0.0 1022346
21:00+7в61169100 0.0 1021345